This is the latest recevied weather packets stored in our database for station/object YN1JLX-13. If no packets are shown the sender has not sent any weather packets the latest 10 day(s).
| Time | Temp. | Humidity | Pressure | Rain* | Wind** | Luminosity | Snow |
|---|---|---|---|---|---|---|---|
| 1777990499 | 20.56° C | 74% | 1012 hPa | 0 mm | - | - | - |
| 1777989899 | 20.56° C | 74% | 1012 hPa | 0 mm | - | - | - |
| 1777989299 | 20.56° C | 74% | 1012 hPa | 0 mm | - | - | - |
| 1777988698 | 20.56° C | 74% | 1012 hPa | 0 mm | - | - | - |
| 1777988098 | 20° C | 74% | 1012 hPa | 0 mm | - | - | - |
| 1777987498 | 21.11° C | 74% | 1012 hPa | 0 mm | - | - | - |
| 1777986898 | 18.89° C | 82% | 1012 hPa | 0 mm | - | - | - |
| 1777986297 | 18.89° C | 83% | 1012 hPa | 0 mm | - | - | - |
| 1777985697 | 18.89° C | 82% | 1012 hPa | 0 mm | - | - | - |
| 1777985097 | 18.33° C | 78% | 1012 hPa | 0 mm | - | - | - |
| 1777984496 | 19.44° C | 78% | 1012 hPa | 0 mm | - | - | - |
| 1777983896 | 17.22° C | 82% | 1012 hPa | 0 mm | - | - | - |
| 1777983296 | 18.33° C | 82% | 1012 hPa | 0 mm | - | - | - |
| 1777982695 | 18.89° C | 82% | 1012 hPa | 0 mm | - | - | - |
| 1777982095 | 17.78° C | 81% | 1012 hPa | 0 mm | - | - | - |
| 1777981494 | 18.33° C | 81% | 1012 hPa | 0 mm | - | - | - |
| 1777980894 | 18.89° C | 81% | 1012 hPa | 0 mm | - | - | - |
| 1777980294 | 17.78° C | 81% | 1011 hPa | 0 mm | - | - | - |
| 1777979694 | 18.89° C | 81% | 1011 hPa | 0 mm | - | - | - |
| 1777979093 | 18.89° C | 81% | 1011 hPa | 0 mm | - | - | - |
| 1777978493 | 17.78° C | 78% | 1011 hPa | 0 mm | - | - | - |
| 1777977893 | 18.33° C | 77% | 1011 hPa | 0 mm | - | - | - |
| 1777977292 | 18.33° C | 77% | 1011 hPa | 0 mm | - | - | - |
| 1777976692 | 19.44° C | 76% | 1011 hPa | 0 mm | - | - | - |
| 1777976092 | 19.44° C | 76% | 1011 hPa | 0 mm | - | - | - |
* Rain latest hour (hover to see other rain measurements)
** Current wind speed in m/s (hover to see current wind gust speed)